Weather History for Montreal Mirabel, QC

Change the Weather History Date:

Friday, April 18, 2014

  Actual Average Record
Temperature  
Mean Temperature 39 °F -  
Max Temperature 48 °F 51 °F 78 °F (2002)
Min Temperature 30 °F 32 °F 24 °F (2003)
Degree Days  
Heating Degree Days 26    
Moisture  
Dew Point 23 °F    
Average Humidity 54    
Maximum Humidity 75    
Minimum Humidity 32    
Precipitation  
Precipitation 0.00 in - - ()
Sea Level Pressure  
Sea Level Pressure 30.35 in    
Wind  
Wind Speed 5 mph ()    
Max Wind Speed 12 mph    
Max Gust Speed -    
Averages and records for this station are not official NWS values.
T = Trace of Precipitation, MM = Missing Value Source: Averaged Metar Reports

Daily Weather History Graph

Daily Weather History Graph

Search for Another Location

Airport:

Trip Planner

Search our weather history database for the weather conditions in past years. The results will help you decide how hot, cold, wet, or windy it might be!

Date:

Astronomy

Apr. 18, 2014 Rise Set
Actual Time 6:05 AM EDT 7:46 PM EDT
Civil Twilight 5:33 AM EDT 8:18 PM EDT
Nautical Twilight 4:55 AM EDT 8:56 PM EDT
Astronomical Twilight 4:14 AM EDT 9:38 PM EDT
Moon 11:36 PM EDT (4/18) 8:18 AM EDT (4/18)
Length of Visible Light 14h 44m
Length of Day
13h 41m
Waning Gibbous, 87% of the Moon is Illuminated
Apr 18
Waning Gibbous
Apr 22
Last Quarter
Apr 29
New
May 6
First Quarter
May 14
Full

Hourly Weather History & Observations

Time (EDT) Temp. Windchill Dew Point Humidity Pressure Visibility Wind Dir Wind Speed Gust Speed Precip Events Conditions
12:00 AM 33.8 °F 28.6 °F 23.0 °F 65% 30.53 in 25.0 mi NNE 5.8 mph - N/A   Mostly Cloudy
1:00 AM 33.8 °F 29.6 °F 23.0 °F 65% 30.53 in 25.0 mi NE 4.6 mph - N/A   Overcast
2:00 AM 33.8 °F 27.7 °F 23.0 °F 65% 30.51 in 25.0 mi NNE 6.9 mph - N/A   Overcast
3:00 AM 32.0 °F 26.4 °F 23.0 °F 69% 30.51 in 25.0 mi NNE 5.8 mph - N/A   Mostly Cloudy
4:00 AM 30.2 °F 24.3 °F 23.0 °F 75% 30.49 in 25.0 mi NE 5.8 mph - N/A   Mostly Cloudy
5:00 AM 30.2 °F 23.4 °F 23.0 °F 75% 30.48 in 25.0 mi NE 6.9 mph - N/A   Mostly Cloudy
6:00 AM 30.2 °F 24.3 °F 23.0 °F 75% 30.46 in 45.0 mi NNE 5.8 mph - N/A   Mostly Cloudy
7:00 AM 30.2 °F 24.3 °F 23.0 °F 75% 30.45 in 45.0 mi NE 5.8 mph - N/A   Overcast
8:00 AM 32.0 °F 26.4 °F 24.8 °F 75% 30.45 in 45.0 mi NNE 5.8 mph - N/A   Overcast
9:00 AM 35.6 °F 30.7 °F 24.8 °F 65% 30.45 in 45.0 mi NE 5.8 mph - N/A   Overcast
10:00 AM 39.2 °F 35.0 °F 23.0 °F 52% 30.44 in 45.0 mi NE 5.8 mph - N/A   Overcast
11:00 AM 41.0 °F 34.3 °F 24.8 °F 53% 30.42 in 45.0 mi East 11.5 mph - N/A   Overcast
12:00 PM 44.6 °F 40.7 °F 23.0 °F 43% 30.39 in 45.0 mi East 6.9 mph - N/A   Overcast
1:00 PM 46.4 °F 42.4 °F 24.8 °F 43% 30.34 in 45.0 mi ENE 8.1 mph - N/A   Overcast
2:00 PM 48.2 °F - 24.8 °F 40% 30.31 in 45.0 mi East 5.8 mph - N/A   Overcast
3:00 PM 48.2 °F - 23.0 °F 37% 30.29 in 45.0 mi East 9.2 mph - N/A   Overcast
4:00 PM 48.2 °F - 19.4 °F 32% 30.25 in 45.0 mi East 8.1 mph - N/A   Overcast
5:00 PM 48.2 °F - 21.2 °F 34% 30.24 in 45.0 mi SE 5.8 mph - N/A   Overcast
6:00 PM 48.2 °F - 21.2 °F 34% 30.20 in 45.0 mi East 3.5 mph - N/A   Mostly Cloudy
7:00 PM 48.2 °F - 21.2 °F 34% 30.19 in 45.0 mi NW 3.5 mph - N/A   Overcast
8:00 PM 46.4 °F - 21.2 °F 37% 30.18 in 25.0 mi Variable 2.3 mph - N/A   Overcast
9:00 PM 44.6 °F - 21.2 °F 39% 30.18 in 25.0 mi NW 2.3 mph - N/A   Overcast
10:00 PM 42.8 °F - 23.0 °F 46% 30.18 in 25.0 mi West 2.3 mph - N/A   Overcast
10:25 PM 42.8 °F 41.1 °F 23.0 °F 46% 30.18 in 25.0 mi WNW 3.5 mph - N/A Rain Light Rain
11:00 PM 39.2 °F - 30.2 °F 70% 30.17 in 25.0 mi Calm Calm - N/A Rain Light Rain